AirNav   Air Wisconsin pilot careers
 
 899 users online  

SC90 Do-Little Field Airport
St Matthews, South Carolina, USA

GOING TO ST MATTHEWS?


FAA INFORMATION EFFECTIVE 29 MARCH 2018

Location

FAA Identifier: SC90
Lat/Long: 33-40-34.0000N / 080-56-54.0000W
33-40.566667N / 080-56.900000W
33.6761111 / -80.9483333
(estimated)
Elevation: 369 ft. / 112 m (estimated)
Variation: 05W (1990)
From city: 9 miles W of ST. MATTHEWS, SC
Time zone: UTC -4 (UTC -5 during Standard Time)
Zip code: 29135

Airport Operations

Airport use: Private use. Permission required prior to landing
Activation date: 06/1993
Control tower: no
ARTCC: JACKSONVILLE CENTER
FSS: ANDERSON FLIGHT SERVICE STATION
Attendance: UNATNDD
Wind indicator: yes
Segmented circle: no

Airport Communications

WX ASOS at OGB (14 nm S): 118.525 (803-536-3901)
WX ASOS at CUB (18 nm N): 119.675 (803-929-0665)
WX ASOS at CAE (18 nm NW): PHONE 803-822-4168

Nearby radio navigation aids

VOR radial/distance  VOR name  Freq  Var
CAEr156/12.1COLUMBIA VORTAC114.7002W
MMTr214/16.6MC ENTIRE VORTAC113.2008W
VANr302/27.7VANCE VORTAC110.4006W

 
NDB name  Hdg/Dist  Freq  Var  ID
SUMTER244/34.925207WSMS ... -- ...
AIKEN094/36.434706WAIK .- .. -.-
MANNING284/37.538106WMNI -- -. ..
WINNSBORO175/39.241407WFDW ..-. -.. .--

Airport Services

Runway Information

Runway 14/32

Dimensions: 3200 x 100 ft. / 975 x 30 m
Surface: turf
RUNWAY 14  RUNWAY 32
Traffic pattern: leftright

Airport Ownership and Management from official FAA records

Ownership: Privately-owned
Owner: DO-LITTLE FIELD INC
160 DO LITTLE LANE
ST MATTHEWS, SC 29135
Phone 803-874-4281
Manager: BILL MITCHELL
35 DOOLITTLE LN
ST MATTHEWS, SC 29135
Phone 803-874-1310

Airport Operational Statistics

Aircraft based on the field: 9
Single engine airplanes: 9
    

Instrument Procedures

There are no published instrument procedures at SC90.

Some nearby airports with instrument procedures:

KXNO - North Air Force Auxiliary Field (8 nm SW)
KOGB - Orangeburg Municipal Airport (14 nm S)
KMMT - Mc Entire Joint National Guard Base (16 nm NE)
6J0 - Lexington County Airport at Pelion (16 nm NW)
KCUB - Jim Hamilton L B Owens Airport (18 nm N)
KCAE - Columbia Metropolitan Airport (18 nm NW)
 
Loc | Ops | Rwys | IFR | FBO | Links
Com | Nav | Svcs | Stats | Notes

AirNav Hotels Sweepstakes
 
Area around SC90 (Do-Little Field Airport)
 
Road maps at: MapQuest Bing Google
 
Aerial photo
WARNING: Photo may not be current or correct
Aerial photo of SC90 (Do-Little Field Airport)
Photo by Eddie Price
Photo taken 10-Nov-2012
looking west.

Do you have a better or more recent aerial photo of Do-Little Field Airport that you would like to share? If so, please send us your photo.

 
Sectional chart

 
Airport distance calculator
Flying to Do-Little Field Airport? Find the distance to fly.

From to SC90

Sunrise and sunset
Times for 22-Apr-2018
 Local
(UTC-4)
 Zulu
(UTC)
Morning civil twilight06:2010:20
Sunrise06:4610:46
Sunset19:5923:59
Evening civil twilight20:2500:25

Current date and time
Zulu (UTC)  23-Apr-2018 02:46:14
Local (UTC-4)  22-Apr-2018 22:46:14
 
METAR
KXNO 
8nm SW 
230222Z AUTO 11005KT 10SM FEW035 BKN095 16/13 A3023 RMK AO2 RAE03DZB03E09RAB14E22 SLP238 $
KOGB 
13nm S 
230153Z AUTO 12008G16KT 10SM -RA OVC085 18/11 A3024 RMK AO2 RAB37 SLP237 P0000 T01780111
KMMT 
17nm NE 
230156Z AUTO 11007KT 10SM -RA FEW050 FEW100 15/13 A3024 RMK AO2 SLP242 P0001 T01540132 $
KCAE 
18nm NW 
230156Z 11007KT 10SM -RA FEW050 OVC100 16/15 A3023 RMK AO2 SLP234 P0001 T01610150
KCUB 
18nm N 
230153Z AUTO VRB04KT 10SM BKN110 17/13 A3024 RMK AO2 RAB0055E48 SLP240 P0001 T01670128
TAF
KOGB 
13nm S 
222033Z 2221/2318 12010KT P6SM -SHRA OVC050 FM230300 11010KT P6SM -RA OVC025 FM230800 10011KT 5SM -RA OVC020 WS015/12035KT FM231400 12012G18KT 4SM -SHRA BR OVC015
KMMT 
17nm NE 
222300Z 2223/2405 09009KT 9999 -SHRA BKN020 OVC080 QNH3015INS BECMG 2303/2304 09009KT 8000 -RA OVC020 QNH3010INS BECMG 2308/2309 09012KT 6000 -RA OVC010 QNH3005INS BECMG 2314/2315 12015G25KT 4800 -RA OVC008 QNH2998INS BECMG 2318/2319 11010G15KT 4800 -RA OVC015 QNH2995INS TX21/2321Z TN12/2312Z
KCAE 
18nm NW 
222033Z 2221/2318 12010KT P6SM -SHRA OVC050 FM230300 11010KT P6SM -SHRA OVC025 FM230800 10012KT 5SM -RA OVC020 WS015/12040KT FM231400 10012G18KT 4SM -SHRA BR OVC015
KCUB 
18nm N 
222033Z 2221/2318 VRB05KT P6SM -SHRA OVC050 FM230300 11005KT P6SM -SHRA OVC025 FM230800 10012KT P6SM -RA OVC020 WS015/12040KT FM231400 10012G18KT 4SM -SHRA BR OVC015
NOTAMs
Click for the latest NOTAMs
NOTAMs are issued by the DoD/FAA and will open in a separate window not controlled by AirNav.

 

 
 

Would you like to see your business listed on this page?

 If your business provides an interesting product or service to pilots, flight crews, aircraft, or users of the Do-Little Field Airport, you should consider listing it here.  To start the listing process, click on the button below
 
Add a business
 

Other Pages about Do-Little Field Airport

Update a link
 
Copyright © AirNav, LLC. All rights reserved. Privacy Policy  Contact